Tracking 31029 objects as of 15-Jul-2025
HD Live streaming from Space Station
objects crossing your sky now

DIRECTV 1R

Track DIRECTV 1R now!
DIRECTV 1R is classified as:


NORAD ID: 25937
Int'l Code: 1999-056A
Perigee: 36,157.5 km
Apogee: 36,171.6 km
Inclination: 9.9 °
Period: 1,455.1 minutes
Semi major axis: 42535 km
RCS: 3.9811 m2 (large)
Launch date: October 10, 1999
Source: United States (US)
Launch site: SEA LAUNCH (SEAL)

First commercial launch by Sea Launch consortium (American, Russian, Ukrainian companies); 16 Ku-band; video channels directly to home-based dishes; anticipated 50 million homes in North America.
Your satellite tracking list
Your tracking list is empty




NASA's NSSDC Master Catalog

Two Line Element Set (TLE):
1 25937U 99056A   25196.34990411 -.00000190  00000-0  00000-0 0  9990
2 25937   9.9328  51.5517 0001658 199.7959 344.2612  0.98963442 93887
Source of the keplerian elements: AFSPC